User: anonymous   Login
Location: Laguna de la Cañada del Gallo
(40.3974°N, 5.2096°W)
Time: 16:41:46
(UTC+00:00)
Language:

PSLV R/B - Orbit

View from above orbital plane
View from above orbital plane
View from above satellite
View from above satellite

Ground track
Ground track

The orbit data is extracted from the following two-line orbital elements,

1 26960U 01049D   24169.87949549  .00014575  00000-0  57839-3 0  9991
2 26960  97.7342 216.1864 0039769  80.8918 279.6815 15.24721857240133
Epoch (UTC): 17 June 2024 21:06:28
Eccentricity: 0.0039769
inclination: 97.7342°
perigee height: 464 km
apogee height: 519 km
right ascension of ascending node: 216.1864°
argument of perigee: 80.8918°
revolutions per day: 15.24721857
mean anomaly at epoch: 279.6815°
orbit number at epoch: 24013

The dashed part of the orbit path shows where the satellite is in the earth's shadow,  

DLR